Overview Statistics Trail Chart Weather Telemetry Raw packets
 

This is the latest recevied weather packets stored in our database for station/object KB9PVH-8. If no packets are shown the sender has not sent any weather packets the latest 10 day(s).

<< 22 23 24 25 26 27 28 >>
Time Temp. Humidity Pressure Rain* Wind** Luminosity Snow
1788197526 29.44° C - - 0 mm 27.27 m/s, ° - -
1788197379 29.44° C - - 0 mm 27.27 m/s, ° - -
1788195701 28.89° C - - 0 mm 19.67 m/s, ° - -
1788195333 28.89° C - - 0 mm 30.85 m/s, ° - -
1788194861 28.89° C - - 0 mm 30.85 m/s, ° - -
1788194020 28.89° C - - 0 mm 35.32 m/s, ° - -
1788193181 27.78° C - - 0 mm 24.59 m/s, ° - -
1788193109 28.33° C - - 0 mm 18.78 m/s, ° - -
1788192311 28.33° C - - 0 mm 18.78 m/s, ° - -
1788191563 27.22° C - - 0 mm 30.4 m/s, ° - -
1788191471 27.22° C - - 0 mm 30.4 m/s, ° - -
1788190736 26.67° C - - 0 mm 15.2 m/s, ° - -
1788190630 26.67° C - - 0 mm 15.2 m/s, ° - -
1788189938 26.67° C - - 0 mm 23.69 m/s, ° - -
1788189790 26.67° C - - 0 mm 23.69 m/s, ° - -
1788188953 25.56° C - - 0 mm 18.33 m/s, ° - -
1788188110 25° C - - 0 mm 13.86 m/s, ° - -
1788186543 24.44° C - - 0 mm 9.83 m/s, ° - -
1788186400 24.44° C - - 0 mm 9.83 m/s, ° - -
1788185654 23.89° C - - 0 mm 7.6 m/s, ° - -
1788185560 23.89° C - - 0 mm 7.6 m/s, ° - -
1788184801 23.89° C - - 0 mm 8.49 m/s, ° - -
1788184719 23.89° C - - 0 mm 8.49 m/s, ° - -
1788183883 23.89° C - - 0 mm 11.18 m/s, ° - -
1788183126 22.78° C - - 0 mm 8.05 m/s, ° - -

* Rain latest hour (hover to see other rain measurements)
** Current wind speed in m/s (hover to see current wind gust speed)